FLOCK 4BE-26 (60484 NORAD) Tracking and Keplerian Element Data

This shows tracking and keplerian element data for the satellite.

Feedback or suggestion? Click here.




ElementValue
Catalog60484
NameFLOCK 4BE-26
Epoch Orbit863
Epoch Day286.70463602
Epoch Year2024
RAAN1.3387
Inclination97.4338
Eccentricity0.0004009
Argument of Perigee266.5009
Mean Anonmoly93.5767
Mean Motion15.19525215
Decay Rate0.00019298
L11 60484U 24149S 24286.70463602 .00019298 00000+0 90976-3 0 9994
L22 60484 97.4338 1.3387 0004009 266.5009 93.5767 15.19525215 8631



Live tracking and technical data element details for FLOCK 4BE-26 (NORAD 60484). FLOCK 4BE-26 can be tracked NOW for your location showing map with azimuth and elevation plus other details from your city location.







IsCatalogInMostPopularTable: catalog: 60484, numindb: 7
Update: records affected: 1



GetName: 60484 FLOCK 4BE-26

Hit Count: updated at: Wed, 04 Dec 2024 18:55:51 GMT